Location: Kalberh�ni
(46.4610°N, 7.2453°E)
Time: 06:08:26
(UTC+00:00)

Cosmos 2333 Rocket - Pass Details

Date: 26 October 2021
Orbit: 837 x 865 km, 70.8° (Epoch: 05 December)

Event Time Altitude Azimuth Distance (km) Brightness Sun altitude
Exits shadow 03:03:13 14° 350° (N) 2,241 4.4 -31.5°
Maximum altitude 03:07:42 36° 52° (NE) 1,338 3.6 -30.8°
Drops below altitude 10° 03:12:59 10° 119° (ESE) 2,503 5.2 -29.9°
Sets 03:15:39 0° 128° (SE) 3,437 5.9 -29.4°
